[[[{"header":{"parameterUnit":"kt","parameterCategory":2,"dx":1,"dy":1,"la1":30.253999710083008,"la2":30.299108505249023,"lo1":-89.0895004272461,"lo2":-89.04439544677734,"nx":28,"ny":28,"refTime":"2022-10-20T21:00:00:Z","depth":"0","parameterNumber":2,"parameterNumberName":"U-component_of_CURRENTS"},"data":[0.0502,0.0497,0.05,0.0493,0.0495,0.0495,0.0513,0.0543,0.0608,0.0745,0.0885,0.1001,0.1473,0.2181,0.258,0.2589,0.2514,0.253,0.2458,0.2462,0.2433,0.2405,0.2407,0.2679,0.2679,0.2534,0.2533,0.2533,0.0507,0.0514,0.0502,0.0528,0.053,0.0544,0.0579,0.0588,0.0656,0.0744,0.0825,0.1126,0.1445,0.1727,0.2118,0.224,0.2192,0.229,0.2258,0.2199,0.2109,0.2104,0.2317,0.2316,0.2316,0.2316,0.2316,0.2316,0.0533,0.0537,0.056,0.0562,0.0574,0.0594,0.0599,0.0646,0.069,0.0751,0.0831,0.0933,0.1249,0.1537,0.1661,0.1943,0.1793,0.1984,0.1979,0.1923,0.1882,0.1748,0.1888,0.1887,0.1886,0.1885,0.1885,0,0.0581,0.0584,0.0607,0.0626,0.0628,0.0639,0.066,0.0676,0.0722,0.0758,0.0827,0.0897,0.1097,0.1303,0.1509,0.1603,0.1687,0.1689,0.1785,0.1831,0.1804,0.1769,0.1578,0.1712,0.1711,0.1709,0.1708,0.1707,0.0605,0.0624,0.0667,0.0671,0.0692,0.0696,0.0695,0.0725,0.0744,0.0793,0.0813,0.0915,0.1004,0.1213,0.1364,0.153,0.1515,0.1644,0.1574,0.1682,0.1689,0.1639,0.16,0.1687,0.169,0.1692,0.1693,0,0.0597,0.0664,0.0696,0.0743,0.0747,0.0734,0.0746,0.0753,0.077,0.081,0.0825,0.0899,0.1009,0.114,0.1245,0.1313,0.1445,0.1429,0.1493,0.1508,0.1633,0.1632,0.1744,0.1716,0.1524,0.1526,0.1527,0,0.0642,0.0657,0.0747,0.0765,0.075,0.078,0.0767,0.0781,0.0819,0.0843,0.0895,0.0928,0.103,0.1126,0.118,0.1287,0.1282,0.1287,0.1298,0.1337,0.1344,0.1443,0.1445,0.1246,0.1245,0.1244,0.1244,0,0.068,0.0738,0.0761,0.0766,0.0816,0.0806,0.0804,0.083,0.0835,0.0892,0.0902,0.0997,0.1024,0.1084,0.115,0.1116,0.124,0.1194,0.1257,0.1261,0.1327,0.1335,0.1514,0.1242,0.1242,0.1242,0.1241,0,0.0737,0.0805,0.0824,0.0869,0.0868,0.0846,0.0841,0.0831,0.0888,0.0893,0.0951,0.0982,0.1039,0.1014,0.1101,0.1068,0.1087,0.1096,0.11,0.1134,0.1119,0.1259,0.1357,0.1457,0.1155,0.1154,0.1153,0,0.0772,0.0847,0.0882,0.0877,0.0905,0.0911,0.0891,0.09,0.0908,0.0921,0.0967,0.0965,0.0973,0.0972,0.0998,0.1013,0.1042,0.0989,0.1063,0.1066,0.1077,0.1152,0.1212,0.1333,0.1138,0.1139,0.1141,0,0.0801,0.0931,0.0924,0.0942,0.0954,0.0954,0.095,0.0945,0.0953,0.0939,0.0943,0.0944,0.0962,0.0964,0.0964,0.0972,0.102,0.096,0.0961,0.0997,0.1092,0.1128,0.1142,0.0997,0.0999,0.0999,0.1128,0,0.0859,0.0903,0.0937,0.0977,0.097,0.0975,0.0976,0.0967,0.0951,0.0935,0.0945,0.093,0.0928,0.0924,0.0912,0.0941,0.0954,0.0931,0.0902,0.0942,0.0997,0.1007,0.089,0.0889,0.0889,0.0889,0,0,0.0833,0.0899,0.0965,0.0994,0.0985,0.1001,0.0986,0.0976,0.0939,0.0937,0.0922,0.0904,0.0883,0.0899,0.0905,0.0897,0.092,0.0872,0.0928,0.0932,0.0936,0.0989,0.0999,0.0888,0.0888,0.0888,0.0888,0,0.0854,0.0915,0.0965,0.0968,0.1005,0.0989,0.1,0.0981,0.0959,0.0928,0.0914,0.0919,0.087,0.0865,0.0862,0.0892,0.0878,0.0891,0.0905,0.0924,0.0929,0.0933,0.0987,0.0995,0.0888,0.0888,0.0888,0,0.083,0.0894,0.0922,0.0976,0.0977,0.097,0.0964,0.098,0.0954,0.0923,0.0871,0.0866,0.0855,0.0841,0.0838,0.0825,0.0849,0.082,0.0823,0.0825,0.0844,0.085,0.0855,0.0783,0.0783,0.0782,0,0,0.0838,0.0907,0.0933,0.0978,0.0992,0.097,0.0966,0.0951,0.0939,0.0921,0.0875,0.0856,0.085,0.0837,0.0818,0.0804,0.0818,0.0806,0.0811,0.0815,0.0818,0.0839,0.0845,0.0781,0.0781,0.078,0,0,0.0827,0.0911,0.091,0.0974,0.0969,0.0953,0.0959,0.0935,0.0899,0.0906,0.0858,0.0849,0.0844,0.0827,0.0807,0.0801,0.0786,0.0788,0.0792,0.0798,0.0803,0.0809,0.0757,0,0,0,0,0,0.0865,0.0912,0.0912,0.0927,0.0955,0.0959,0.0951,0.0926,0.0919,0.0902,0.0882,0.0848,0.0815,0.0796,0.0786,0.0782,0.0756,0.076,0.0764,0.0768,0.0774,0.078,0,0,0,0,0,0,0.0872,0.0891,0.0911,0.0912,0.0919,0.0957,0.0934,0.0923,0.0919,0.0914,0.0854,0.0846,0.081,0.0798,0.0789,0.0787,0.076,0.0757,0.0761,0.0764,0.077,0.0775,0.078,0,0,0,0,0,0.0876,0.0892,0.0963,0.0907,0.0913,0.0895,0.0932,0.0924,0.0898,0.0868,0.0858,0.0889,0.081,0.0801,0.0792,0.0792,0.0766,0.0763,0.076,0.0763,0.0765,0.0772,0,0,0,0,0,0,0.088,0.0834,0.0961,0.0959,0.0916,0.0889,0.089,0.0925,0.0849,0.0843,0.0902,0.0899,0.081,0.0803,0.0796,0.0796,0.077,0.0767,0.0765,0.0762,0.0764,0.0766,0,0,0,0,0,0,0.0827,0.0833,0.0959,0.0972,0.097,0.0884,0.0886,0.0855,0.0848,0.0882,0.0881,0.0902,0.0841,0.0804,0.0799,0.0748,0.0774,0.0771,0.0769,0.0768,0.0764,0.0766,0,0,0,0,0,0,0.0827,0.0832,0.0971,0.097,0.0968,0.0926,0.0852,0.0883,0.0863,0.0884,0.0864,0.0865,0.0844,0.0836,0.0801,0.0752,0.0749,0.0774,0.0772,0.077,0.0769,0,0,0,0,0,0,0,0.0827,0.0823,0.0997,0.0967,0.0965,0.0945,0.0942,0.0939,0.0863,0.0864,0.0864,0.0864,0.0791,0.0788,0.0784,0.0756,0,0,0.0774,0.0773,0,0,0,0,0,0,0,0,0.0818,0.0821,0.0997,0.0998,0.0999,0.0944,0.0942,0.0939,0.0863,0.0864,0.0864,0.0864,0.079,0.0787,0.0785,0,0,0,0,0,0,0,0,0,0,0,0,0,0,0,0.0998,0.0998,0,0.0944,0.0942,0.094,0.0863,0.0864,0.0864,0.0864,0.0789,0.0787,0.0785,0,0,0,0,0,0,0,0,0,0,0,0,0,0,0,0,0,0,0,0,0,0,0,0,0,0,0,0,0,0,0,0,0,0,0,0,0,0,0,0,0,0,0,0,0,0,0,0,0,0,0,0,0,0,0,0,0,0,0,0,0,0,0,0,0,0,0,0,0]}],[{"header":{"parameterUnit":"kt","parameterCategory":2,"dx":1,"dy":1,"la1":30.253999710083008,"la2":30.299108505249023,"lo1":-89.0895004272461,"lo2":-89.04439544677734,"nx":28,"ny":28,"refTime":"2022-10-20T21:00:00:Z","depth":"0","parameterNumber":3,"parameterNumberName":"V-component_of_CURRENTS"},"data":[-0.1725,-0.1611,-0.1547,-0.1459,-0.1431,-0.141,-0.1374,-0.1237,-0.1139,-0.0918,-0.0799,-0.0698,-0.0713,-0.1403,-0.1885,-0.2074,-0.2375,-0.2476,-0.2615,-0.2296,-0.2294,-0.2292,-0.2298,-0.2314,-0.2315,-0.3008,-0.3012,-0.3016,-0.1774,-0.1652,-0.1573,-0.1513,-0.1496,-0.1515,-0.1462,-0.1407,-0.1313,-0.1176,-0.1106,-0.1062,-0.1281,-0.1551,-0.1905,-0.2131,-0.2407,-0.224,-0.2416,-0.2528,-0.2208,-0.2209,-0.2207,-0.2207,-0.2207,-0.2207,-0.2207,-0.2207,-0.1803,-0.1745,-0.1649,-0.1609,-0.1602,-0.1565,-0.1544,-0.1515,-0.1445,-0.1324,-0.1351,-0.1248,-0.143,-0.1676,-0.1886,-0.2153,-0.2254,-0.2194,-0.2224,-0.2367,-0.2498,-0.2188,-0.217,-0.217,-0.217,-0.217,-0.217,0,-0.1838,-0.1777,-0.1765,-0.1718,-0.1701,-0.1701,-0.1707,-0.1677,-0.1651,-0.158,-0.1495,-0.1472,-0.1581,-0.1709,-0.1888,-0.2012,-0.2264,-0.216,-0.2174,-0.2237,-0.2401,-0.2525,-0.2214,-0.2192,-0.2192,-0.2192,-0.2193,-0.2193,-0.1832,-0.1811,-0.1808,-0.1794,-0.1833,-0.1847,-0.1809,-0.1821,-0.179,-0.1711,-0.1675,-0.1655,-0.1636,-0.1765,-0.1951,-0.2099,-0.2181,-0.216,-0.219,-0.2212,-0.2244,-0.2386,-0.2496,-0.2194,-0.2193,-0.2193,-0.2193,0,-0.1842,-0.1847,-0.1857,-0.1895,-0.1908,-0.1891,-0.1897,-0.186,-0.1826,-0.1786,-0.1776,-0.1766,-0.1785,-0.1919,-0.1988,-0.2103,-0.2231,-0.2172,-0.2182,-0.2184,-0.2218,-0.2246,-0.2391,-0.2518,-0.2189,-0.2188,-0.2188,0,-0.1907,-0.1915,-0.1948,-0.1965,-0.1933,-0.1944,-0.1906,-0.188,-0.1875,-0.1853,-0.1898,-0.1874,-0.2007,-0.2054,-0.2137,-0.2191,-0.2182,-0.2217,-0.2218,-0.2223,-0.2224,-0.2295,-0.2331,-0.2214,-0.2214,-0.2214,-0.2214,0,-0.1979,-0.1993,-0.1953,-0.1955,-0.1967,-0.1948,-0.1944,-0.1924,-0.1901,-0.1931,-0.1908,-0.203,-0.2042,-0.2106,-0.2167,-0.2184,-0.2199,-0.2219,-0.2225,-0.2225,-0.2289,-0.2296,-0.2219,-0.2214,-0.2214,-0.2214,-0.2214,0,-0.204,-0.2079,-0.2029,-0.2029,-0.2023,-0.2003,-0.1949,-0.1924,-0.196,-0.1963,-0.2048,-0.2115,-0.2164,-0.2187,-0.2242,-0.2247,-0.225,-0.2255,-0.2254,-0.2328,-0.2343,-0.233,-0.2242,-0.2256,-0.2262,-0.2262,-0.2262,0,-0.2123,-0.2113,-0.2092,-0.2068,-0.2072,-0.2071,-0.2011,-0.2027,-0.204,-0.2064,-0.2147,-0.217,-0.2241,-0.2249,-0.2264,-0.2288,-0.2271,-0.228,-0.2349,-0.2352,-0.2341,-0.2248,-0.2252,-0.2247,-0.2266,-0.2265,-0.2265,0,-0.215,-0.2151,-0.2137,-0.2142,-0.2138,-0.2162,-0.211,-0.212,-0.2119,-0.216,-0.2175,-0.2205,-0.2279,-0.2319,-0.2363,-0.2352,-0.2278,-0.2385,-0.2389,-0.2369,-0.2259,-0.2255,-0.2252,-0.2274,-0.2273,-0.2273,-0.2268,0,-0.2152,-0.2137,-0.2157,-0.2158,-0.2168,-0.2189,-0.2206,-0.22,-0.2216,-0.2262,-0.2284,-0.233,-0.24,-0.2382,-0.2426,-0.2407,-0.2438,-0.2458,-0.2522,-0.2454,-0.2463,-0.246,-0.2544,-0.2547,-0.255,-0.2552,0,0,-0.2174,-0.2141,-0.2192,-0.2206,-0.2223,-0.229,-0.2281,-0.2304,-0.2366,-0.2383,-0.2394,-0.2473,-0.2504,-0.2533,-0.2508,-0.2521,-0.2538,-0.2569,-0.2492,-0.2485,-0.2479,-0.2482,-0.2476,-0.2557,-0.2558,-0.2559,-0.256,0,-0.2163,-0.2161,-0.2173,-0.22,-0.228,-0.2314,-0.2319,-0.2395,-0.2412,-0.2415,-0.2478,-0.2501,-0.2547,-0.2586,-0.2615,-0.2555,-0.2615,-0.2563,-0.2527,-0.2514,-0.2503,-0.2494,-0.2494,-0.2487,-0.2566,-0.2566,-0.2565,0,-0.216,-0.2202,-0.2207,-0.2248,-0.231,-0.2324,-0.2406,-0.2474,-0.2467,-0.2568,-0.2563,-0.2608,-0.2681,-0.2679,-0.2687,-0.2727,-0.2696,-0.2714,-0.2702,-0.2746,-0.2739,-0.2726,-0.2715,-0.286,-0.286,-0.286,0,0,-0.2174,-0.2184,-0.2249,-0.2258,-0.2286,-0.2376,-0.2424,-0.2474,-0.2541,-0.2565,-0.2607,-0.2662,-0.2691,-0.2715,-0.2751,-0.2755,-0.2798,-0.2742,-0.2728,-0.2716,-0.2752,-0.2743,-0.273,-0.2861,-0.2861,-0.2861,0,0,-0.2204,-0.227,-0.2271,-0.228,-0.2336,-0.2456,-0.2502,-0.254,-0.2586,-0.2602,-0.2674,-0.269,-0.2691,-0.2753,-0.2757,-0.2765,-0.2833,-0.2833,-0.2702,-0.2687,-0.2673,-0.2703,-0.2829,0,0,0,0,0,-0.2262,-0.2256,-0.2254,-0.2267,-0.2357,-0.2433,-0.2454,-0.2552,-0.2586,-0.2586,-0.2642,-0.269,-0.2773,-0.2778,-0.2791,-0.2751,-0.2873,-0.2871,-0.2869,-0.2703,-0.2686,-0.2671,0,0,0,0,0,0,-0.2268,-0.2276,-0.2258,-0.2365,-0.2391,-0.2433,-0.2503,-0.2528,-0.2588,-0.2597,-0.2678,-0.2692,-0.2747,-0.2777,-0.2787,-0.2747,-0.2826,-0.2872,-0.2871,-0.2869,-0.2697,-0.2683,-0.267,0,0,0,0,0,-0.2274,-0.2281,-0.2377,-0.2369,-0.2391,-0.2527,-0.2503,-0.2524,-0.2557,-0.2663,-0.2679,-0.2632,-0.2745,-0.2758,-0.2783,-0.274,-0.2819,-0.2823,-0.2871,-0.287,-0.2869,-0.269,0,0,0,0,0,0,-0.2279,-0.2298,-0.2387,-0.2402,-0.2379,-0.2527,-0.2542,-0.252,-0.2618,-0.2639,-0.2619,-0.2625,-0.2743,-0.2754,-0.2763,-0.2733,-0.2814,-0.2818,-0.282,-0.287,-0.2869,-0.2868,0,0,0,0,0,0,-0.2297,-0.2307,-0.2394,-0.2398,-0.2414,-0.2527,-0.254,-0.2571,-0.2616,-0.2565,-0.2577,-0.2621,-0.2725,-0.275,-0.2758,-0.2806,-0.281,-0.2813,-0.2816,-0.2817,-0.2869,-0.2868,0,0,0,0,0,0,-0.2305,-0.2314,-0.2394,-0.2406,-0.242,-0.2585,-0.2557,-0.263,-0.2657,-0.2556,-0.2661,-0.2663,-0.272,-0.273,-0.2754,-0.2798,-0.2804,-0.281,-0.2812,-0.2814,-0.2815,0,0,0,0,0,0,0,-0.2312,-0.2202,-0.2314,-0.2412,-0.2424,-0.2544,-0.2547,-0.2549,-0.2657,-0.2659,-0.266,-0.2662,-0.279,-0.2794,-0.2798,-0.2792,0,0,-0.281,-0.2811,0,0,0,0,0,0,0,0,-0.2203,-0.2202,-0.2314,-0.2318,-0.2322,-0.2544,-0.2546,-0.2548,-0.2658,-0.2659,-0.266,-0.2661,-0.2791,-0.2794,-0.2798,0,0,0,0,0,0,0,0,0,0,0,0,0,0,0,-0.2315,-0.2318,0,-0.2545,-0.2546,-0.2548,-0.2658,-0.2659,-0.266,-0.2661,-0.2792,-0.2795,-0.2797,0,0,0,0,0,0,0,0,0,0,0,0,0,0,0,0,0,0,0,0,0,0,0,0,0,0,0,0,0,0,0,0,0,0,0,0,0,0,0,0,0,0,0,0,0,0,0,0,0,0,0,0,0,0,0,0,0,0,0,0,0,0,0,0,0,0,0,0,0]}]],[[{"header":{"parameterUnit":"kt","parameterCategory":2,"dx":1,"dy":1,"la1":30.253999710083008,"la2":30.299108505249023,"lo1":-89.0895004272461,"lo2":-89.04439544677734,"nx":28,"ny":28,"refTime":"2022-10-20T21:00:00:Z","depth":"2","parameterNumber":2,"parameterNumberName":"U-component_of_CURRENTS"},"data":[-0.0839,-0.0819,-0.0811,-0.083,-0.0817,-0.0833,-0.0845,-0.0943,-0.0944,-0.0963,-0.0862,-0.1043,-0.0776,-0.0619,-0.0574,-0.043,-0.0431,-0.0419,-0.0437,-0.0558,-0.056,-0.0516,-0.0493,0,0,0,0,0,-0.0862,-0.0842,-0.0816,-0.0771,-0.0778,-0.0683,-0.0657,-0.0719,-0.0777,-0.0728,-0.0834,-0.0742,-0.0815,-0.0626,-0.0421,-0.038,-0.042,-0.0327,-0.0412,-0.0417,-0.0421,-0.0398,-0.0377,-0.0376,-0.0374,-0.0373,0,0,-0.0871,-0.0869,-0.0826,-0.0756,-0.0704,-0.0653,-0.0633,-0.0576,-0.0565,-0.0618,-0.059,-0.0653,-0.0592,-0.0579,-0.0524,-0.0365,-0.0407,-0.0403,-0.0408,-0.0412,-0.0388,-0.0367,-0.0364,-0.0363,-0.0363,-0.0362,-0.0362,0,-0.0866,-0.0839,-0.082,-0.0749,-0.0667,-0.0605,-0.0492,-0.0478,-0.0379,-0.0387,-0.0393,-0.0455,-0.0443,-0.0487,-0.0454,-0.0476,-0.0417,-0.0412,-0.0385,-0.0512,-0.0498,-0.0516,-0.0516,-0.0523,-0.0523,-0.0523,-0.0523,-0.0523,-0.0846,-0.0832,-0.0766,-0.0735,-0.0672,-0.0577,-0.0504,-0.0404,-0.0376,-0.0317,-0.0322,-0.0293,-0.0371,-0.0416,-0.0376,-0.041,-0.0396,-0.0421,-0.043,-0.0387,-0.0404,-0.0406,-0.0408,-0.0524,-0.0524,-0.0524,-0.0524,0,-0.0851,-0.08,-0.0765,-0.0693,-0.0647,-0.0599,-0.0448,-0.0428,-0.0369,-0.0333,-0.0306,-0.0304,-0.0314,-0.0342,-0.04,-0.0399,-0.044,-0.0433,-0.0483,-0.0499,-0.042,-0.0419,-0.04,-0.0398,-0.0396,-0.0395,-0.0393,0,-0.0842,-0.0795,-0.0728,-0.0699,-0.0644,-0.0558,-0.0489,-0.0445,-0.0389,-0.0369,-0.0344,-0.0343,-0.0354,-0.0374,-0.0408,-0.0417,-0.0455,-0.0437,-0.0451,-0.0509,-0.0508,-0.0556,-0.056,-0.0517,-0.0516,-0.0516,-0.0516,0,-0.086,-0.0765,-0.0712,-0.0674,-0.0598,-0.0536,-0.0478,-0.043,-0.0402,-0.0379,-0.037,-0.0375,-0.0363,-0.039,-0.041,-0.0414,-0.047,-0.05,-0.0459,-0.0456,-0.0546,-0.0549,-0.0516,-0.0516,-0.0516,-0.0515,-0.0515,0,-0.0819,-0.0786,-0.0709,-0.063,-0.0605,-0.0552,-0.049,-0.0452,-0.0433,-0.0416,-0.0391,-0.0399,-0.0394,-0.0393,-0.0431,-0.0415,-0.0431,-0.0471,-0.0474,-0.045,-0.0481,-0.0553,-0.0513,-0.0517,-0.0517,-0.0517,-0.0517,0,-0.0848,-0.0779,-0.0712,-0.0642,-0.0608,-0.055,-0.0504,-0.0484,-0.0462,-0.0458,-0.0456,-0.0442,-0.0431,-0.0418,-0.0423,-0.0478,-0.0473,-0.0462,-0.0544,-0.0547,-0.0482,-0.0424,-0.0484,-0.0511,-0.0514,-0.0515,-0.0515,0,-0.0869,-0.0769,-0.0744,-0.071,-0.0625,-0.0635,-0.0556,-0.0547,-0.0538,-0.0499,-0.0489,-0.0451,-0.0465,-0.0467,-0.0486,-0.0499,-0.0473,-0.0509,-0.0513,-0.0513,-0.0499,-0.0431,-0.0426,-0.0481,-0.0481,-0.0481,-0.0513,0,-0.086,-0.0788,-0.0763,-0.0704,-0.0679,-0.0656,-0.0649,-0.062,-0.0587,-0.0604,-0.0566,-0.0569,-0.0559,-0.055,-0.0555,-0.0539,-0.055,-0.0576,-0.0608,-0.0572,-0.0592,-0.0593,-0.061,-0.0611,-0.0613,-0.0614,0,0,-0.0885,-0.0836,-0.0818,-0.0778,-0.0753,-0.0772,-0.0742,-0.0736,-0.0737,-0.0727,-0.07,-0.0671,-0.0662,-0.0651,-0.0623,-0.0627,-0.0637,-0.0608,-0.059,-0.0587,-0.0585,-0.0601,-0.06,-0.0617,-0.0617,-0.0618,-0.0618,0,-0.0913,-0.0847,-0.0814,-0.0803,-0.0792,-0.0807,-0.0796,-0.081,-0.0788,-0.0748,-0.0755,-0.0733,-0.0687,-0.0699,-0.0696,-0.0648,-0.0663,-0.0628,-0.0583,-0.0602,-0.0597,-0.0593,-0.0608,-0.0606,-0.0622,-0.0622,-0.0622,0,-0.0936,-0.0919,-0.0899,-0.0883,-0.088,-0.0867,-0.0898,-0.0884,-0.0866,-0.0882,-0.081,-0.0806,-0.0809,-0.0764,-0.0741,-0.0758,-0.0703,-0.0706,-0.0699,-0.0707,-0.073,-0.0724,-0.0719,-0.0789,-0.0789,-0.0789,0,0,-0.0952,-0.0909,-0.0934,-0.0897,-0.0888,-0.0909,-0.0905,-0.0909,-0.0907,-0.0886,-0.0865,-0.0841,-0.0823,-0.0799,-0.0787,-0.075,-0.0782,-0.0722,-0.0714,-0.0707,-0.0711,-0.0732,-0.0726,-0.0789,-0.0789,-0.0789,0,0,-0.0986,-0.0981,-0.0964,-0.0915,-0.0937,-0.0983,-0.0947,-0.0957,-0.0921,-0.0886,-0.0887,-0.0878,-0.0821,-0.0833,-0.0841,-0.078,-0.0819,-0.0817,-0.0749,-0.074,-0.0732,-0.0736,-0.0848,0,0,0,0,0,-0.1035,-0.0989,-0.0973,-0.0968,-0.0955,-0.0991,-0.0991,-0.0978,-0.0952,-0.0934,-0.0903,-0.0898,-0.084,-0.0847,-0.0842,-0.0793,-0.0796,-0.0795,-0.0794,-0.0699,-0.0689,-0.068,0,0,0,0,0,0,-0.1034,-0.1028,-0.0976,-0.1017,-0.1015,-0.0991,-0.0985,-0.0981,-0.0953,-0.0946,-0.0907,-0.0899,-0.0899,-0.0849,-0.0845,-0.0798,-0.0849,-0.0796,-0.0795,-0.0794,-0.0695,-0.0687,-0.068,0,0,0,0,0,-0.1033,-0.1029,-0.0996,-0.1018,-0.1016,-0.1005,-0.0983,-0.098,-0.0941,-0.0943,-0.0933,-0.0925,-0.0901,-0.0893,-0.0847,-0.0799,-0.0852,-0.0851,-0.0795,-0.0794,-0.0793,-0.0691,0,0,0,0,0,0,-0.1033,-0.1027,-0.0997,-0.0998,-0.1003,-0.1005,-0.0999,-0.0978,-0.0936,-0.093,-0.0965,-0.0961,-0.0902,-0.0896,-0.089,-0.0799,-0.0855,-0.0853,-0.0852,-0.0794,-0.0794,-0.0793,0,0,0,0,0,0,-0.1031,-0.1028,-0.0997,-0.0978,-0.0977,-0.1004,-0.0999,-0.0987,-0.0934,-0.0958,-0.0956,-0.0964,-0.0896,-0.0899,-0.0894,-0.0878,-0.0857,-0.0855,-0.0854,-0.0853,-0.0794,-0.0793,0,0,0,0,0,0,-0.103,-0.1028,-0.0977,-0.0976,-0.0975,-0.0982,-0.0992,-0.0964,-0.0957,-0.0959,-0.0952,-0.095,-0.0899,-0.0894,-0.0897,-0.0883,-0.088,-0.0857,-0.0856,-0.0855,-0.0854,0,0,0,0,0,0,0,-0.103,-0.1038,-0.0996,-0.0975,-0.0973,-0.1009,-0.1008,-0.1008,-0.0956,-0.0954,-0.0953,-0.0951,-0.0866,-0.0864,-0.0862,-0.0887,0,0,-0.0857,-0.0856,0,0,0,0,0,0,0,0,-0.104,-0.1038,-0.0996,-0.0996,-0.0997,-0.1009,-0.1008,-0.1008,-0.0956,-0.0954,-0.0953,-0.0952,-0.0865,-0.0864,-0.0863,0,0,0,0,0,0,0,0,0,0,0,0,0,0,0,-0.0996,-0.0996,0,-0.1009,-0.1008,-0.1008,-0.0956,-0.0954,-0.0953,-0.0952,-0.0865,-0.0864,-0.0863,0,0,0,0,0,0,0,0,0,0,0,0,0,0,0,0,0,0,0,0,0,0,0,0,0,0,0,0,0,0,0,0,0,0,0,0,0,0,0,0,0,0,0,0,0,0,0,0,0,0,0,0,0,0,0,0,0,0,0,0,0,0,0,0,0,0,0,0,0]}],[{"header":{"parameterUnit":"kt","parameterCategory":2,"dx":1,"dy":1,"la1":30.253999710083008,"la2":30.299108505249023,"lo1":-89.0895004272461,"lo2":-89.04439544677734,"nx":28,"ny":28,"refTime":"2022-10-20T21:00:00:Z","depth":"2","parameterNumber":3,"parameterNumberName":"V-component_of_CURRENTS"},"data":[0.1646,0.1656,0.1692,0.1799,0.1856,0.1829,0.1772,0.1523,0.1251,0.0891,0.0669,0.0253,0.0335,0.021,0.0269,0.0466,0.042,0.0487,0.0491,0.0313,0.0299,0.0291,0.0325,0,0,0,0,0,0.1699,0.1706,0.1748,0.178,0.1838,0.1841,0.1727,0.1567,0.1453,0.1084,0.0909,0.0563,0.0576,0.0429,0.0553,0.061,0.0576,0.0534,0.0401,0.0387,0.0374,0.0404,0.0515,0.0515,0.0516,0.0516,0,0,0.176,0.174,0.1731,0.1788,0.1802,0.179,0.1742,0.1614,0.1457,0.1068,0.1015,0.0877,0.0602,0.0528,0.0532,0.0543,0.0541,0.0405,0.0393,0.0381,0.0418,0.0493,0.053,0.053,0.0531,0.0531,0.0531,0,0.1782,0.1773,0.1732,0.1792,0.1788,0.1739,0.1646,0.1538,0.1223,0.11,0.0925,0.091,0.0786,0.0702,0.0609,0.0553,0.0268,0.0298,0.022,0.017,0.0238,0.0247,0.0248,0.0219,0.0217,0.0216,0.0215,0.0215,0.178,0.1776,0.1729,0.1741,0.1719,0.1665,0.1602,0.139,0.1237,0.0929,0.0839,0.0687,0.0635,0.052,0.0398,0.0328,0.0201,0.0252,0.0249,0.025,0.026,0.0263,0.0265,0.0198,0.02,0.0202,0.0203,0,0.1761,0.1728,0.1682,0.1591,0.1592,0.1557,0.1397,0.1286,0.1094,0.0887,0.0833,0.0606,0.0495,0.0338,0.0187,0.0168,0.0101,0.0109,0.0132,0.0147,0.0239,0.0247,0.022,0.0224,0.0228,0.0231,0.0234,0,0.1691,0.1672,0.1611,0.1588,0.1551,0.1403,0.1305,0.1171,0.0954,0.0793,0.0643,0.0534,0.0354,0.0246,0.0171,0.0136,0.0048,0.0122,0.0131,0.0106,0.0119,0.004,0.0051,-0.0056,-0.0056,-0.0056,-0.0056,0,0.1638,0.1559,0.1544,0.1497,0.1333,0.1289,0.1209,0.0993,0.0864,0.0683,0.06,0.0434,0.0372,0.0271,0.0173,0.0172,0.0046,0.0039,0.0125,0.0136,0.012,0.0135,-0.0056,-0.0056,-0.0056,-0.0056,-0.0056,0,0.1534,0.1495,0.1468,0.1328,0.1295,0.1257,0.1065,0.0965,0.0753,0.0662,0.0534,0.045,0.032,0.0321,0.0174,0.0202,0.0163,0.0121,0.0119,0.026,0.0299,0.0283,0.022,0.0143,0.0144,0.0145,0.0146,0,0.1492,0.1456,0.1355,0.1306,0.1259,0.1115,0.1012,0.0886,0.0776,0.0667,0.0548,0.046,0.0424,0.0386,0.0305,0.0235,0.0184,0.0221,0.0183,0.0183,0.0317,0.0255,0.0233,0.0234,0.0161,0.0159,0.0158,0,0.1435,0.1304,0.1304,0.1271,0.1139,0.1097,0.0986,0.0868,0.079,0.0715,0.0624,0.0493,0.046,0.0411,0.0353,0.0289,0.0215,0.0299,0.0298,0.0312,0.0126,0.0262,0.0265,0.0182,0.0179,0.0177,0.017,0,0.1348,0.1287,0.1263,0.1187,0.1125,0.1086,0.0978,0.0913,0.0862,0.0799,0.0684,0.0611,0.0526,0.049,0.0454,0.0346,0.0377,0.0366,0.0399,0.0331,0.0342,0.0332,0.046,0.0462,0.0463,0.0463,0,0,0.1337,0.1268,0.1174,0.1139,0.1092,0.1024,0.1001,0.093,0.0857,0.0804,0.0816,0.067,0.0631,0.0503,0.0468,0.0457,0.0452,0.0482,0.0369,0.0359,0.0349,0.0354,0.0344,0.0465,0.0465,0.0466,0.0466,0,0.1304,0.1205,0.1182,0.1127,0.1066,0.1014,0.1005,0.0933,0.0889,0.0831,0.0783,0.0716,0.0661,0.0589,0.0548,0.0476,0.0498,0.0473,0.0439,0.0379,0.0367,0.0357,0.036,0.035,0.0469,0.0468,0.0468,0,0.1284,0.1215,0.1183,0.1079,0.1043,0.1,0.097,0.0925,0.0884,0.0859,0.0802,0.0758,0.0702,0.0634,0.0611,0.0629,0.0541,0.0572,0.0566,0.0574,0.0514,0.0501,0.0489,0.0646,0.0647,0.0647,0,0,0.1274,0.1212,0.1126,0.1071,0.1041,0.0988,0.0957,0.093,0.0875,0.0854,0.0824,0.0782,0.0722,0.07,0.0663,0.0616,0.0616,0.0593,0.0585,0.0578,0.0581,0.0521,0.0507,0.0649,0.0649,0.0649,0,0,0.1277,0.1165,0.1153,0.1062,0.1021,0.0944,0.0918,0.0894,0.0844,0.0845,0.0812,0.0802,0.0746,0.0742,0.0769,0.0676,0.0711,0.0705,0.0675,0.0665,0.0657,0.0668,0.0786,0,0,0,0,0,0.1239,0.1178,0.1169,0.1145,0.1019,0.0954,0.094,0.0892,0.0888,0.0871,0.0825,0.0841,0.0738,0.0761,0.0755,0.0725,0.0676,0.0671,0.0667,0.0617,0.0606,0.0597,0,0,0,0,0,0,0.1229,0.12,0.117,0.1089,0.1061,0.0955,0.0938,0.0924,0.0888,0.0884,0.0844,0.0839,0.0819,0.0765,0.076,0.073,0.0788,0.0674,0.067,0.0666,0.0614,0.0605,0.0597,0,0,0,0,0,0.1221,0.1198,0.1003,0.109,0.1066,0.0992,0.0939,0.0927,0.09,0.0859,0.0852,0.0866,0.082,0.0814,0.0762,0.0732,0.0791,0.0789,0.0671,0.0668,0.0665,0.0609,0,0,0,0,0,0,0.1216,0.1194,0.0997,0.0989,0.1097,0.0998,0.0979,0.093,0.0877,0.0868,0.0881,0.0879,0.082,0.0815,0.0811,0.0732,0.0794,0.0792,0.0791,0.0669,0.0667,0.0664,0,0,0,0,0,0,0.1207,0.1187,0.0993,0.1004,0.0997,0.1003,0.0986,0.0964,0.0879,0.0903,0.0898,0.0881,0.0841,0.0816,0.0813,0.0779,0.0797,0.0795,0.0793,0.0792,0.0667,0.0665,0,0,0,0,0,0,0.1198,0.1182,0.1006,0.1001,0.0994,0.0898,0.0986,0.087,0.0854,0.0908,0.0854,0.0855,0.0844,0.0839,0.0814,0.0782,0.078,0.0796,0.0795,0.0794,0.0794,0,0,0,0,0,0,0,0.1191,0.1307,0.1045,0.0997,0.0992,0.0911,0.0909,0.0907,0.0854,0.0854,0.0854,0.0855,0.0808,0.0805,0.0803,0.0784,0,0,0.0797,0.0796,0,0,0,0,0,0,0,0,0.1314,0.1309,0.1045,0.1043,0.1041,0.0911,0.0909,0.0908,0.0854,0.0854,0.0854,0.0854,0.0807,0.0805,0.0804,0,0,0,0,0,0,0,0,0,0,0,0,0,0,0,0.1044,0.1043,0,0.0911,0.0909,0.0908,0.0854,0.0854,0.0854,0.0854,0.0806,0.0805,0.0804,0,0,0,0,0,0,0,0,0,0,0,0,0,0,0,0,0,0,0,0,0,0,0,0,0,0,0,0,0,0,0,0,0,0,0,0,0,0,0,0,0,0,0,0,0,0,0,0,0,0,0,0,0,0,0,0,0,0,0,0,0,0,0,0,0,0,0,0,0]}]],[[{"header":{"parameterUnit":"kt","parameterCategory":2,"dx":1,"dy":1,"la1":30.253999710083008,"la2":30.299108505249023,"lo1":-89.0895004272461,"lo2":-89.04439544677734,"nx":28,"ny":28,"refTime":"2022-10-20T21:00:00:Z","depth":"4","parameterNumber":2,"parameterNumberName":"U-component_of_CURRENTS"},"data":[-0.0982,-0.0996,-0.0997,-0.0857,-0.0785,-0.0754,-0.0798,-0.0886,-0.0866,-0.0994,-0.0985,-0.1101,-0.1082,-0.117,-0.1076,-0.1081,-0.1345,-0.1158,-0.1155,-0.1695,-0.1733,-0.1767,-0.1564,0,0,0,0,0,-0.1028,-0.1017,-0.1031,-0.1005,-0.1001,-0.1003,-0.1082,-0.1156,-0.1249,-0.1184,-0.1283,-0.121,-0.1181,-0.118,-0.1126,-0.119,-0.145,-0.1119,-0.1574,-0.1718,-0.1761,-0.1549,0,0,0,0,0,0,-0.1089,-0.1088,-0.1144,-0.1166,-0.118,-0.1144,-0.1213,-0.122,-0.1273,-0.1392,-0.133,-0.136,-0.1459,-0.1396,-0.1327,-0.1315,-0.147,-0.1561,-0.1609,-0.165,-0.1452,-0.1322,-0.1045,0,0,0,0,0,-0.1135,-0.1195,-0.123,-0.1264,-0.1312,-0.1331,-0.1385,-0.1398,-0.1515,-0.1636,-0.1577,-0.1578,-0.1512,-0.1585,-0.1507,-0.1575,-0.1923,-0.1787,-0.1819,-0.2014,-0.1958,-0.1932,-0.1946,-0.1921,-0.1926,-0.193,-0.1932,0,-0.1205,-0.1228,-0.1329,-0.1348,-0.1405,-0.1477,-0.1512,-0.1662,-0.1667,-0.175,-0.1732,-0.1793,-0.1834,-0.1723,-0.1827,-0.1899,-0.1871,-0.1892,-0.2097,-0.2025,-0.1989,-0.1993,-0.1994,-0.1966,-0.1963,-0.196,-0.1957,0,-0.1239,-0.1309,-0.1356,-0.1459,-0.1487,-0.1528,-0.1647,-0.1668,-0.1797,-0.1823,-0.1899,-0.2018,-0.2054,-0.2121,-0.2247,-0.2231,-0.222,-0.2124,-0.2385,-0.2354,-0.2062,-0.205,-0.2022,-0.2009,-0.1999,-0.199,-0.1982,0,-0.1305,-0.1342,-0.1441,-0.1465,-0.151,-0.1598,-0.1646,-0.1715,-0.1819,-0.1826,-0.1987,-0.202,-0.2284,-0.2283,-0.2384,-0.2316,-0.2486,-0.2328,-0.2283,-0.2595,-0.2583,-0.2573,-0.2557,-0.2703,-0.2702,-0.2701,-0.2701,0,-0.1327,-0.1413,-0.1455,-0.1484,-0.1572,-0.1618,-0.1672,-0.1722,-0.176,-0.1884,-0.1932,-0.2116,-0.2241,-0.2366,-0.2407,-0.2488,-0.2494,-0.2599,-0.2316,-0.2293,-0.2562,-0.2547,-0.2699,-0.2699,-0.2699,-0.2699,-0.2698,0,-0.1383,-0.1422,-0.1476,-0.155,-0.1568,-0.1617,-0.1673,-0.1716,-0.1776,-0.1835,-0.1957,-0.2026,-0.2204,-0.2236,-0.2425,-0.2391,-0.2449,-0.2475,-0.2478,-0.2112,-0.2019,-0.2356,-0.2486,-0.2483,-0.2481,-0.248,-0.2478,0,-0.1383,-0.1439,-0.1489,-0.1545,-0.1568,-0.1625,-0.1671,-0.1706,-0.1743,-0.1795,-0.19,-0.1997,-0.2077,-0.2172,-0.2245,-0.2304,-0.2371,-0.2301,-0.2362,-0.2364,-0.2023,-0.2057,-0.2335,-0.2451,-0.2455,-0.2457,-0.2459,0,-0.1375,-0.146,-0.1475,-0.15,-0.1572,-0.1591,-0.1646,-0.1678,-0.1699,-0.1795,-0.185,-0.1984,-0.205,-0.2089,-0.2148,-0.2204,-0.2327,-0.2216,-0.2216,-0.2257,-0.2441,-0.2071,-0.2052,-0.2321,-0.2323,-0.2326,-0.244,0,-0.1392,-0.144,-0.1464,-0.1517,-0.1548,-0.1582,-0.1617,-0.1653,-0.1701,-0.1716,-0.1814,-0.1882,-0.1965,-0.1997,-0.2023,-0.2133,-0.2133,-0.2096,-0.2064,-0.2141,-0.2179,-0.2194,-0.1993,-0.1991,-0.199,-0.1989,0,0,-0.1369,-0.1411,-0.1447,-0.1481,-0.1508,-0.154,-0.1566,-0.1594,-0.164,-0.1651,-0.1684,-0.1804,-0.1835,-0.1918,-0.1964,-0.1962,-0.1993,-0.1994,-0.2096,-0.2108,-0.2119,-0.216,-0.2176,-0.1986,-0.1986,-0.1985,-0.1985,0,-0.1363,-0.1407,-0.1435,-0.1464,-0.1506,-0.152,-0.1541,-0.1576,-0.1599,-0.1655,-0.1667,-0.1732,-0.1799,-0.1828,-0.1854,-0.1936,-0.1954,-0.1968,-0.2043,-0.2083,-0.2097,-0.2109,-0.2152,-0.2167,-0.1982,-0.1982,-0.1982,0,-0.1344,-0.1377,-0.1397,-0.1443,-0.1466,-0.1491,-0.1496,-0.1534,-0.1561,-0.1564,-0.162,-0.1655,-0.1685,-0.1748,-0.1783,-0.1765,-0.1909,-0.1861,-0.1868,-0.1882,-0.192,-0.1936,-0.195,-0.1767,-0.1767,-0.1766,0,0,-0.1339,-0.1378,-0.1404,-0.1441,-0.1456,-0.1483,-0.1503,-0.1516,-0.1542,-0.1558,-0.1586,-0.1621,-0.1663,-0.1694,-0.1717,-0.1782,-0.1788,-0.1837,-0.1847,-0.1855,-0.1873,-0.1914,-0.1929,-0.1764,-0.1764,-0.1764,0,0,-0.1329,-0.1371,-0.1384,-0.1424,-0.1449,-0.1467,-0.1491,-0.151,-0.1542,-0.1552,-0.1566,-0.1573,-0.1641,-0.1644,-0.1614,-0.1733,-0.1689,-0.1696,-0.1742,-0.1754,-0.1764,-0.1778,-0.1605,0,0,0,0,0,-0.1337,-0.1366,-0.1377,-0.1387,-0.1434,-0.1462,-0.1467,-0.1485,-0.1504,-0.1523,-0.1543,-0.1551,-0.1626,-0.1598,-0.1608,-0.1679,-0.1738,-0.1742,-0.1747,-0.182,-0.1833,-0.1844,0,0,0,0,0,0,-0.1341,-0.1353,-0.1376,-0.1395,-0.1406,-0.1461,-0.1454,-0.1459,-0.1502,-0.1505,-0.1544,-0.155,-0.1546,-0.1595,-0.1603,-0.1672,-0.1602,-0.1739,-0.1743,-0.1747,-0.1825,-0.1835,-0.1845,0,0,0,0,0,-0.1345,-0.1354,-0.1429,-0.1394,-0.1404,-0.1433,-0.1454,-0.1458,-0.1498,-0.1508,-0.1516,-0.1516,-0.1545,-0.1555,-0.16,-0.1668,-0.1596,-0.1599,-0.1742,-0.1745,-0.1748,-0.183,0,0,0,0,0,0,-0.1347,-0.1351,-0.1431,-0.1434,-0.1395,-0.1431,-0.1438,-0.1458,-0.15,-0.1507,-0.1477,-0.1478,-0.1545,-0.1552,-0.156,-0.1668,-0.1592,-0.1595,-0.1597,-0.1744,-0.1747,-0.1749,0,0,0,0,0,0,-0.1346,-0.1353,-0.1433,-0.1433,-0.1436,-0.1429,-0.1436,-0.1467,-0.1501,-0.1466,-0.1468,-0.1477,-0.1545,-0.1551,-0.1556,-0.1603,-0.1588,-0.1591,-0.1593,-0.1594,-0.1747,-0.1748,0,0,0,0,0,0,-0.1349,-0.1355,-0.1432,-0.1434,-0.1437,-0.1471,-0.1457,-0.1511,-0.1485,-0.1464,-0.1485,-0.1485,-0.1544,-0.1549,-0.1554,-0.1598,-0.1602,-0.1588,-0.159,-0.1592,-0.1593,0,0,0,0,0,0,0,-0.1352,-0.1309,-0.1416,-0.1435,-0.1438,-0.1463,-0.1464,-0.1465,-0.1485,-0.1485,-0.1485,-0.1485,-0.1571,-0.1574,-0.1578,-0.1594,0,0,-0.1588,-0.1589,0,0,0,0,0,0,0,0,-0.1306,-0.1308,-0.1416,-0.1417,-0.1418,-0.1464,-0.1464,-0.1464,-0.1485,-0.1485,-0.1485,-0.1485,-0.1572,-0.1575,-0.1577,0,0,0,0,0,0,0,0,0,0,0,0,0,0,0,-0.1417,-0.1417,0,-0.1464,-0.1464,-0.1464,-0.1485,-0.1485,-0.1485,-0.1485,-0.1573,-0.1575,-0.1577,0,0,0,0,0,0,0,0,0,0,0,0,0,0,0,0,0,0,0,0,0,0,0,0,0,0,0,0,0,0,0,0,0,0,0,0,0,0,0,0,0,0,0,0,0,0,0,0,0,0,0,0,0,0,0,0,0,0,0,0,0,0,0,0,0,0,0,0,0]}],[{"header":{"parameterUnit":"kt","parameterCategory":2,"dx":1,"dy":1,"la1":30.253999710083008,"la2":30.299108505249023,"lo1":-89.0895004272461,"lo2":-89.04439544677734,"nx":28,"ny":28,"refTime":"2022-10-20T21:00:00:Z","depth":"4","parameterNumber":3,"parameterNumberName":"V-component_of_CURRENTS"},"data":[-0.0878,-0.0944,-0.0955,-0.1058,-0.1126,-0.1264,-0.1328,-0.1359,-0.1283,-0.1276,-0.1147,-0.1116,-0.0905,-0.1038,-0.0721,-0.0691,-0.0698,-0.0513,-0.051,-0.0566,-0.0577,-0.0588,-0.0649,0,0,0,0,0,-0.0856,-0.0887,-0.0974,-0.1071,-0.1191,-0.1256,-0.1365,-0.1404,-0.1422,-0.134,-0.1339,-0.1187,-0.0984,-0.092,-0.0747,-0.0801,-0.0667,-0.06,-0.0651,-0.0573,-0.0586,-0.0641,0,0,0,0,0,0,-0.0832,-0.0878,-0.0945,-0.1035,-0.1161,-0.1264,-0.1331,-0.1346,-0.139,-0.1401,-0.1354,-0.1253,-0.1209,-0.0997,-0.0856,-0.0717,-0.066,-0.0635,-0.0644,-0.0655,-0.0705,-0.0674,-0.0546,0,0,0,0,0,-0.08,-0.0836,-0.0899,-0.101,-0.1113,-0.1231,-0.1335,-0.1365,-0.1442,-0.1497,-0.142,-0.1342,-0.12,-0.1052,-0.091,-0.0755,-0.082,-0.0724,-0.0729,-0.0741,-0.0715,-0.068,-0.0689,-0.0635,-0.0636,-0.0637,-0.0638,0,-0.0753,-0.0791,-0.0906,-0.0968,-0.1033,-0.1156,-0.1248,-0.1352,-0.1402,-0.1469,-0.1482,-0.1444,-0.1415,-0.1142,-0.1065,-0.0848,-0.0812,-0.0758,-0.0773,-0.0737,-0.0696,-0.0702,-0.0708,-0.0648,-0.0648,-0.0647,-0.0646,0,-0.0728,-0.076,-0.085,-0.0957,-0.1003,-0.1091,-0.1239,-0.1324,-0.1397,-0.1476,-0.1512,-0.1533,-0.1416,-0.1339,-0.1198,-0.1098,-0.0953,-0.0874,-0.0994,-0.0954,-0.0726,-0.0727,-0.0665,-0.0662,-0.0658,-0.0656,-0.0653,0,-0.0697,-0.0762,-0.0829,-0.0874,-0.0989,-0.1051,-0.1182,-0.1254,-0.1351,-0.1416,-0.1462,-0.1483,-0.1444,-0.1382,-0.1258,-0.1076,-0.1136,-0.0931,-0.0883,-0.1015,-0.1014,-0.0974,-0.0969,-0.1032,-0.1033,-0.1034,-0.1035,0,-0.066,-0.0742,-0.081,-0.0841,-0.0945,-0.1016,-0.1086,-0.1185,-0.1251,-0.1348,-0.1388,-0.1422,-0.1432,-0.1353,-0.1231,-0.1217,-0.1112,-0.1084,-0.0916,-0.0905,-0.0978,-0.0971,-0.1036,-0.1037,-0.1037,-0.1037,-0.1038,0,-0.0643,-0.0678,-0.0759,-0.0857,-0.0881,-0.095,-0.1067,-0.1131,-0.122,-0.1251,-0.1307,-0.1318,-0.1346,-0.129,-0.1218,-0.1223,-0.1131,-0.1067,-0.1061,-0.0951,-0.0874,-0.0857,-0.093,-0.093,-0.093,-0.093,-0.093,0,-0.0604,-0.0663,-0.0685,-0.0776,-0.0813,-0.0851,-0.0927,-0.0992,-0.1033,-0.1105,-0.1129,-0.12,-0.1153,-0.1179,-0.1166,-0.1113,-0.1085,-0.1111,-0.0965,-0.096,-0.0869,-0.0918,-0.1068,-0.0932,-0.0932,-0.0932,-0.0931,0,-0.0562,-0.0606,-0.0616,-0.0652,-0.0697,-0.0732,-0.0805,-0.0873,-0.0931,-0.0965,-0.1041,-0.1097,-0.1093,-0.1107,-0.1092,-0.108,-0.1079,-0.1006,-0.1003,-0.0938,-0.1015,-0.0927,-0.0917,-0.1061,-0.1063,-0.1064,-0.0933,0,-0.0545,-0.0569,-0.0586,-0.0619,-0.065,-0.0685,-0.0714,-0.0756,-0.0775,-0.0801,-0.0883,-0.0896,-0.0944,-0.0952,-0.0932,-0.0993,-0.0925,-0.0915,-0.0854,-0.0923,-0.0851,-0.085,-0.083,-0.0828,-0.0827,-0.0825,0,0,-0.0502,-0.052,-0.051,-0.0536,-0.0561,-0.0557,-0.06,-0.0625,-0.066,-0.0693,-0.0672,-0.0758,-0.0764,-0.0841,-0.0867,-0.0862,-0.0813,-0.0827,-0.0891,-0.0898,-0.0905,-0.0841,-0.0842,-0.0823,-0.0822,-0.0822,-0.0821,0,-0.0487,-0.0478,-0.0496,-0.0512,-0.0526,-0.0537,-0.0548,-0.0567,-0.0588,-0.0639,-0.0639,-0.0682,-0.0707,-0.0737,-0.075,-0.0834,-0.0761,-0.0827,-0.0878,-0.0878,-0.0887,-0.0896,-0.0835,-0.0837,-0.0817,-0.0818,-0.0818,0,-0.0455,-0.0451,-0.0458,-0.0466,-0.0473,-0.0506,-0.0478,-0.0503,-0.0543,-0.051,-0.0572,-0.0582,-0.059,-0.0643,-0.0664,-0.0629,-0.0691,-0.0687,-0.0695,-0.0702,-0.0698,-0.071,-0.072,-0.0584,-0.0584,-0.0583,0,0,-0.0442,-0.045,-0.0449,-0.0461,-0.0466,-0.0471,-0.0481,-0.0487,-0.0502,-0.0512,-0.0522,-0.0536,-0.0568,-0.0575,-0.06,-0.0632,-0.0596,-0.0661,-0.0672,-0.0681,-0.0693,-0.0692,-0.0704,-0.0581,-0.0581,-0.0581,0,0,-0.044,-0.0436,-0.0428,-0.0437,-0.0451,-0.0457,-0.0473,-0.0473,-0.0497,-0.0499,-0.049,-0.0493,-0.0548,-0.0528,-0.0502,-0.0581,-0.0533,-0.0539,-0.0596,-0.0609,-0.062,-0.0632,-0.0466,0,0,0,0,0,-0.0424,-0.0434,-0.0428,-0.0428,-0.0434,-0.0457,-0.046,-0.0463,-0.0456,-0.0476,-0.0487,-0.0464,-0.052,-0.0496,-0.0497,-0.054,-0.0553,-0.0558,-0.0563,-0.0646,-0.066,-0.0672,0,0,0,0,0,0,-0.0424,-0.0424,-0.0428,-0.0431,-0.0432,-0.0456,-0.0437,-0.0439,-0.0454,-0.0455,-0.0464,-0.0464,-0.0456,-0.0493,-0.0495,-0.0536,-0.0465,-0.0555,-0.0559,-0.0563,-0.0651,-0.0662,-0.0672,0,0,0,0,0,-0.0424,-0.0424,-0.0431,-0.0431,-0.0432,-0.0438,-0.0437,-0.0438,-0.0456,-0.0449,-0.045,-0.0459,-0.0457,-0.0458,-0.0494,-0.0536,-0.0464,-0.0464,-0.0558,-0.0561,-0.0564,-0.0656,0,0,0,0,0,0,-0.0424,-0.0431,-0.0432,-0.0433,-0.0427,-0.0438,-0.0439,-0.0438,-0.0449,-0.045,-0.0442,-0.0441,-0.0457,-0.0458,-0.0459,-0.0539,-0.0463,-0.0463,-0.0464,-0.056,-0.0563,-0.0565,0,0,0,0,0,0,-0.0431,-0.0432,-0.0432,-0.0426,-0.0427,-0.0438,-0.0439,-0.0448,-0.0449,-0.0442,-0.0442,-0.0441,-0.0451,-0.0458,-0.0459,-0.0473,-0.0462,-0.0462,-0.0463,-0.0463,-0.0562,-0.0565,0,0,0,0,0,0,-0.0432,-0.0433,-0.0426,-0.0427,-0.0427,-0.044,-0.0446,-0.0451,-0.0448,-0.0442,-0.0446,-0.0446,-0.045,-0.0452,-0.0459,-0.0473,-0.0473,-0.0462,-0.0462,-0.0463,-0.0463,0,0,0,0,0,0,0,-0.0433,-0.0424,-0.0423,-0.0427,-0.0427,-0.0441,-0.0442,-0.0442,-0.0447,-0.0447,-0.0447,-0.0446,-0.0457,-0.0458,-0.0459,-0.0472,0,0,-0.0462,-0.0462,0,0,0,0,0,0,0,0,-0.0424,-0.0424,-0.0423,-0.0423,-0.0423,-0.0441,-0.0442,-0.0442,-0.0447,-0.0447,-0.0447,-0.0446,-0.0458,-0.0458,-0.0459,0,0,0,0,0,0,0,0,0,0,0,0,0,0,0,-0.0423,-0.0423,0,-0.0442,-0.0442,-0.0442,-0.0447,-0.0447,-0.0447,-0.0446,-0.0458,-0.0458,-0.0459,0,0,0,0,0,0,0,0,0,0,0,0,0,0,0,0,0,0,0,0,0,0,0,0,0,0,0,0,0,0,0,0,0,0,0,0,0,0,0,0,0,0,0,0,0,0,0,0,0,0,0,0,0,0,0,0,0,0,0,0,0,0,0,0,0,0,0,0,0]}]]]